Weather History for Santa Maria, CA

Change the Weather History Date:

Saturday, January 26, 2013

  Actual Average Record
Temperature  
Mean Temperature 58 °F 52 °F  
Max Temperature 68 °F 64 °F 82 °F (1931)
Min Temperature 47 °F 40 °F 25 °F (1950)
Degree Days  
Heating Degree Days 7 13  
Month to date heating degree days 391 355  
Since 1 July heating degree days 1238 1427  
Cooling Degree Days 0 0  
Month to date cooling degree days 0 0  
Year to date cooling degree days 0 0  
Growing Degree Days 8 (Base 50)    
Moisture  
Dew Point 51 °F    
Average Humidity 82    
Maximum Humidity 100    
Minimum Humidity 63    
Precipitation  
Precipitation 0.00 in 0.09 in 3.00 in (1909)
Month to date precipitation 0.63 2.27  
Year to date precipitation 0.63 2.27  
Since 1 July precipitation 4.36 6.51  
Sea Level Pressure  
Sea Level Pressure 29.99 in    
Wind  
Wind Speed 9 mph (WNW)    
Max Wind Speed 25 mph    
Max Gust Speed 30 mph    
Visibility 6 miles    
Events Fog    
T = Trace of Precipitation, MM = Missing Value Source: NWS Daily Summary

Daily Weather History Graph

Daily Weather History Graph

Search for Another Location

Airport:

Trip Planner

Search our weather history database for the weather conditions in past years. The results will help you decide how hot, cold, wet, or windy it might be!

Date:

Astronomy

Jan. 26, 2013 Rise Set
Actual Time 7:04 AM PST 5:25 PM PST
Civil Twilight 6:37 AM PST 5:51 PM PST
Nautical Twilight 6:06 AM PST 6:22 PM PST
Astronomical Twilight 5:36 AM PST 6:52 PM PST
Moon 5:22 PM PST (1/26) 6:26 AM PST (1/26)
Length of Visible Light 11h 14m
Length of Day
10h 20m
Full, 100% of the Moon is Illuminated
Jan 26
Full
Jan 26
Full
Feb 3
Last Quarter
Feb 9
New
Feb 17
First Quarter

Hourly Weather History & Observations

Time (PST) Temp. Dew Point Humidity Pressure Visibility Wind Dir Wind Speed Gust Speed Precip Events Conditions
12:00 AM 51.8 °F 51.8 °F 100% 30.00 in 0.2 mi Calm Calm - N/A Fog Fog
12:10 AM 51.8 °F 51.8 °F 100% 30.00 in 0.2 mi Calm Calm - N/A Fog Fog
12:20 AM 53.6 °F 53.6 °F 100% 30.00 in 0.8 mi Calm Calm - N/A   Overcast
12:29 AM 51.8 °F 51.8 °F 100% 29.99 in 0.2 mi Calm Calm - N/A Fog Fog
12:46 AM 51.8 °F 51.8 °F 100% 29.99 in 0.2 mi Calm Calm - N/A Fog Fog
12:51 AM 52.0 °F 51.1 °F 97% 29.99 in 0.2 mi Calm Calm - N/A Fog Fog
1:51 AM 51.1 °F 51.1 °F 100% 29.99 in 0.2 mi SSE 3.5 mph - N/A Fog Fog
2:02 AM 51.8 °F 51.8 °F 100% 29.98 in 0.5 mi South 3.5 mph - N/A Fog Fog
2:08 AM 51.8 °F 50.0 °F 94% 29.98 in 1.0 mi Calm Calm - N/A   Overcast
2:12 AM 51.8 °F 51.8 °F 100% 29.98 in 2.0 mi SE 4.6 mph - N/A   Overcast
2:24 AM 51.8 °F 51.8 °F 100% 29.97 in 3.0 mi Calm Calm - N/A   Overcast
2:51 AM 52.0 °F 51.1 °F 97% 29.99 in 3.0 mi Calm Calm - N/A   Overcast
3:14 AM 51.8 °F 51.8 °F 100% 29.97 in 2.5 mi Calm Calm - N/A   Overcast
3:23 AM 51.8 °F 51.8 °F 100% 29.97 in 3.0 mi Calm Calm - N/A   Overcast
3:51 AM 52.0 °F 52.0 °F 100% 29.98 in 5.0 mi Calm Calm - N/A   Overcast
4:51 AM 53.1 °F 52.0 °F 96% 29.98 in 6.0 mi Calm Calm - N/A   Overcast
5:51 AM 52.0 °F 51.1 °F 97% 29.96 in 7.0 mi Calm Calm - N/A   Clear
6:51 AM 48.9 °F 48.0 °F 97% 29.97 in 10.0 mi South 4.6 mph - N/A   Clear
7:51 AM 51.1 °F 50.0 °F 96% 29.97 in 6.0 mi NW 4.6 mph - N/A   Clear
8:51 AM 57.9 °F 54.0 °F 87% 29.98 in 8.0 mi NW 10.4 mph - N/A   Clear
9:51 AM 62.1 °F 54.0 °F 75% 29.99 in 10.0 mi NW 11.5 mph - N/A   Partly Cloudy
10:51 AM 66.0 °F 53.1 °F 63% 30.00 in 10.0 mi NNW 11.5 mph - N/A   Partly Cloudy
11:51 AM 62.1 °F 55.9 °F 80% 29.98 in 10.0 mi WNW 16.1 mph - 0.01 in   Scattered Clouds
12:44 PM 59.0 °F 55.4 °F 88% 29.96 in 9.0 mi WNW 17.3 mph - N/A   Mostly Cloudy
12:51 PM 59.0 °F 55.0 °F 87% 29.96 in 8.0 mi NW 19.6 mph 25.3 mph N/A   Mostly Cloudy
1:08 PM 57.2 °F 55.4 °F 94% 29.96 in 5.0 mi WNW 21.9 mph - N/A   Mostly Cloudy
1:35 PM 60.8 °F 55.4 °F 82% 29.95 in 9.0 mi WNW 17.3 mph - N/A   Mostly Cloudy
1:51 PM 61.0 °F 55.0 °F 81% 29.96 in 9.0 mi WNW 16.1 mph - N/A   Scattered Clouds
2:31 PM 57.2 °F 53.6 °F 88% 29.96 in 9.0 mi WNW 20.7 mph - N/A   Mostly Cloudy
2:51 PM 57.9 °F 53.1 °F 84% 29.96 in 9.0 mi WNW 23.0 mph - N/A   Scattered Clouds
3:51 PM 57.0 °F 50.0 °F 77% 29.98 in 9.0 mi NW 19.6 mph - N/A   Mostly Cloudy
4:51 PM 54.0 °F 46.9 °F 77% 29.97 in 9.0 mi WNW 18.4 mph - N/A   Scattered Clouds
5:51 PM 52.0 °F 44.1 °F 74% 30.00 in 10.0 mi NW 16.1 mph 23.0 mph N/A   Scattered Clouds
6:51 PM 51.1 °F 46.0 °F 83% 30.01 in 9.0 mi NW 12.7 mph 20.7 mph N/A   Partly Cloudy
7:51 PM 50.0 °F 46.0 °F 86% 30.03 in 9.0 mi NW 9.2 mph - N/A   Mostly Cloudy
8:51 PM 48.0 °F 44.1 °F 86% 30.04 in 9.0 mi NNW 6.9 mph - N/A   Mostly Cloudy
9:34 PM 50.0 °F 46.4 °F 87% 30.04 in 9.0 mi WNW 8.1 mph - N/A   Overcast
9:51 PM 50.0 °F 45.0 °F 83% 30.04 in 9.0 mi WNW 11.5 mph - N/A   Overcast
10:27 PM 50.0 °F 44.6 °F 82% 30.04 in 9.0 mi NW 10.4 mph - N/A   Overcast
10:51 PM 50.0 °F 45.0 °F 83% 30.05 in 9.0 mi NW 8.1 mph - N/A   Overcast
11:00 PM 50.0 °F 44.6 °F 82% 30.04 in 9.0 mi NW 6.9 mph - N/A   Overcast
11:51 PM 48.9 °F 46.0 °F 90% 30.05 in 8.0 mi Calm Calm - N/A   Overcast